Time,TemperatureF,DewpointF,PressureIn,WindDirection,WindDirectionDegrees,WindSpeedMPH,WindSpeedGustMPH,Humidity,HourlyPrecipIn,Conditions,Clouds,dailyrainin,SoftwareType,DateUTC
2013-03-01 00:01:00,52.0,50.0,-100.00,South,190,3.0,-999.0,94,0.00,,,-99.99,,2013-03-01 08:01:00,
2013-03-01 00:11:00,52.0,50.0,-100.00,South,190,3.0,-999.0,94,0.00,,,-99.99,,2013-03-01 08:11:00,
2013-03-01 00:22:00,52.0,50.0,-100.00,South,190,3.0,-999.0,94,0.00,,,-99.99,,2013-03-01 08:22:00,
2013-03-01 00:30:00,52.0,50.0,-100.00,SSW,192,2.0,-999.0,94,0.00,,,-99.99,,2013-03-01 08:30:00,
2013-03-01 00:53:00,52.0,50.0,-100.00,SSW,192,2.0,-999.0,94,0.00,,,-99.99,,2013-03-01 08:53:00,
2013-03-01 01:02:00,52.0,50.0,-100.00,SSW,192,2.0,-999.0,94,0.00,,,-99.99,,2013-03-01 09:02:00,
2013-03-01 01:11:00,52.0,50.0,-100.00,SSW,192,2.0,-999.0,94,0.00,,,-99.99,,2013-03-01 09:11:00,
2013-03-01 01:21:00,52.0,50.0,-100.00,SSW,192,2.0,-999.0,94,0.00,,,-99.99,,2013-03-01 09:21:00,
2013-03-01 01:30:00,51.0,50.0,-100.00,South,180,4.0,-999.0,95,0.00,,,-99.99,,2013-03-01 09:30:00,
2013-03-01 01:52:00,51.0,50.0,-100.00,South,180,4.0,-999.0,95,0.00,,,-99.99,,2013-03-01 09:52:00,
2013-03-01 02:01:00,51.0,50.0,-100.00,South,180,4.0,-999.0,95,0.00,,,-99.99,,2013-03-01 10:01:00,
2013-03-01 02:11:00,51.0,50.0,-100.00,South,180,4.0,-999.0,95,0.00,,,-99.99,,2013-03-01 10:11:00,
2013-03-01 02:21:00,51.0,50.0,-100.00,South,180,4.0,-999.0,95,0.00,,,-99.99,,2013-03-01 10:21:00,
2013-03-01 02:30:00,51.0,50.0,-100.00,South,185,3.0,-999.0,96,0.00,,,-99.99,,2013-03-01 10:30:00,
2013-03-01 02:52:00,51.0,50.0,-100.00,South,185,3.0,-999.0,96,0.00,,,-99.99,,2013-03-01 10:52:00,
2013-03-01 03:01:00,51.0,50.0,-100.00,South,185,3.0,-999.0,96,0.00,,,-99.99,,2013-03-01 11:01:00,
2013-03-01 03:11:00,51.0,50.0,-100.00,South,185,3.0,-999.0,96,0.00,,,-99.99,,2013-03-01 11:11:00,
2013-03-01 03:22:00,51.0,50.0,-100.00,South,185,3.0,-999.0,96,0.00,,,-99.99,,2013-03-01 11:22:00,
2013-03-01 03:30:00,51.0,50.0,-100.00,South,179,3.0,-999.0,96,0.00,,,-99.99,,2013-03-01 11:30:00,
2013-03-01 03:52:00,51.0,50.0,-100.00,South,179,3.0,-999.0,96,0.00,,,-99.99,,2013-03-01 11:52:00,
2013-03-01 04:01:00,51.0,50.0,-100.00,South,179,3.0,-999.0,96,0.00,,,-99.99,,2013-03-01 12:01:00,
2013-03-01 04:11:00,51.0,50.0,-100.00,South,179,3.0,-999.0,96,0.00,,,-99.99,,2013-03-01 12:11:00,
2013-03-01 04:21:00,51.0,50.0,-100.00,South,179,3.0,-999.0,96,0.00,,,-99.99,,2013-03-01 12:21:00,
2013-03-01 04:30:00,50.0,49.0,-100.00,South,177,3.0,-999.0,96,0.00,,,-99.99,,2013-03-01 12:30:00,
2013-03-01 04:52:00,50.0,49.0,-100.00,South,177,3.0,-999.0,96,0.00,,,-99.99,,2013-03-01 12:52:00,
2013-03-01 05:01:00,50.0,49.0,-100.00,South,177,3.0,-999.0,96,0.00,,,-99.99,,2013-03-01 13:01:00,
2013-03-01 05:11:00,50.0,49.0,-100.00,South,177,3.0,-999.0,96,0.00,,,-99.99,,2013-03-01 13:11:00,
2013-03-01 05:21:00,50.0,49.0,-100.00,South,177,3.0,-999.0,96,0.00,,,-99.99,,2013-03-01 13:21:00,
2013-03-01 05:30:00,50.0,49.0,-100.00,South,174,3.0,-999.0,96,0.01,,,-99.99,,2013-03-01 13:30:00,
2013-03-01 05:52:00,50.0,49.0,-100.00,South,174,3.0,-999.0,96,0.01,,,-99.99,,2013-03-01 13:52:00,
2013-03-01 06:01:00,50.0,49.0,-100.00,South,174,3.0,-999.0,96,0.01,,,-99.99,,2013-03-01 14:01:00,
2013-03-01 06:11:00,50.0,49.0,-100.00,South,174,3.0,-999.0,96,0.01,,,-99.99,,2013-03-01 14:11:00,
2013-03-01 06:21:00,50.0,49.0,-100.00,South,174,3.0,-999.0,96,0.01,,,-99.99,,2013-03-01 14:21:00,
2013-03-01 06:30:00,50.0,49.0,-100.00,South,178,1.0,-999.0,96,0.00,,,-99.99,,2013-03-01 14:30:00,
2013-03-01 06:52:00,50.0,49.0,-100.00,South,178,1.0,-999.0,96,0.00,,,-99.99,,2013-03-01 14:52:00,
2013-03-01 07:01:00,50.0,49.0,-100.00,South,178,1.0,-999.0,96,0.00,,,-99.99,,2013-03-01 15:01:00,
2013-03-01 07:11:00,50.0,49.0,-100.00,South,178,1.0,-999.0,96,0.00,,,-99.99,,2013-03-01 15:11:00,
2013-03-01 07:21:00,50.0,49.0,-100.00,South,178,1.0,-999.0,96,0.00,,,-99.99,,2013-03-01 15:21:00,
2013-03-01 07:30:00,50.0,49.0,-100.00,SSW,201,3.0,-999.0,96,0.00,,,-99.99,,2013-03-01 15:30:00,
2013-03-01 07:52:00,50.0,49.0,-100.00,SSW,201,3.0,-999.0,96,0.00,,,-99.99,,2013-03-01 15:52:00,
2013-03-01 08:01:00,50.0,49.0,-100.00,SSW,201,3.0,-999.0,96,0.00,,,-99.99,,2013-03-01 16:01:00,
2013-03-01 08:11:00,50.0,49.0,-100.00,SSW,201,3.0,-999.0,96,0.00,,,-99.99,,2013-03-01 16:11:00,
2013-03-01 08:21:00,50.0,49.0,-100.00,SSW,201,3.0,-999.0,96,0.00,,,-99.99,,2013-03-01 16:21:00,
2013-03-01 08:30:00,50.0,49.0,-100.00,South,177,1.0,-999.0,96,0.00,,,-99.99,,2013-03-01 16:30:00,
2013-03-01 08:52:00,50.0,49.0,-100.00,South,177,1.0,-999.0,96,0.00,,,-99.99,,2013-03-01 16:52:00,
2013-03-01 09:01:00,50.0,49.0,-100.00,South,177,1.0,-999.0,96,0.00,,,-99.99,,2013-03-01 17:01:00,
2013-03-01 09:11:00,50.0,49.0,-100.00,South,177,1.0,-999.0,96,0.00,,,-99.99,,2013-03-01 17:11:00,
2013-03-01 09:21:00,50.0,49.0,-100.00,South,177,1.0,-999.0,96,0.00,,,-99.99,,2013-03-01 17:21:00,
2013-03-01 09:30:00,51.0,50.0,-100.00,SSE,160,2.0,-999.0,95,0.00,,,-99.99,,2013-03-01 17:30:00,
2013-03-01 09:52:00,51.0,50.0,-100.00,SSE,160,2.0,-999.0,95,0.00,,,-99.99,,2013-03-01 17:52:00,
2013-03-01 10:01:00,51.0,50.0,-100.00,SSE,160,2.0,-999.0,95,0.00,,,-99.99,,2013-03-01 18:01:00,
2013-03-01 10:12:00,51.0,50.0,-100.00,SSE,160,2.0,-999.0,95,0.00,,,-99.99,,2013-03-01 18:12:00,
2013-03-01 10:22:00,51.0,50.0,-100.00,SSE,160,2.0,-999.0,95,0.00,,,-99.99,,2013-03-01 18:22:00,
2013-03-01 10:30:00,52.0,50.0,-100.00,South,178,4.0,-999.0,93,0.00,,,-99.99,,2013-03-01 18:30:00,
2013-03-01 10:52:00,52.0,50.0,-100.00,South,178,4.0,-999.0,93,0.00,,,-99.99,,2013-03-01 18:52:00,
2013-03-01 11:01:00,52.0,50.0,-100.00,South,178,4.0,-999.0,93,0.00,,,-99.99,,2013-03-01 19:01:00,
2013-03-01 11:11:00,52.0,50.0,-100.00,South,178,4.0,-999.0,93,0.00,,,-99.99,,2013-03-01 19:11:00,
2013-03-01 11:21:00,52.0,50.0,-100.00,South,178,4.0,-999.0,93,0.00,,,-99.99,,2013-03-01 19:21:00,
2013-03-01 11:30:00,54.0,51.0,-100.00,SSE,157,2.0,-999.0,90,0.00,,,-99.99,,2013-03-01 19:30:00,
2013-03-01 11:52:00,54.0,51.0,-100.00,SSE,157,2.0,-999.0,90,0.00,,,-99.99,,2013-03-01 19:52:00,
2013-03-01 12:01:00,54.0,51.0,-100.00,SSE,157,2.0,-999.0,90,0.00,,,-99.99,,2013-03-01 20:01:00,
2013-03-01 12:11:00,54.0,51.0,-100.00,SSE,157,2.0,-999.0,90,0.00,,,-99.99,,2013-03-01 20:11:00,
2013-03-01 12:21:00,54.0,51.0,-100.00,SSE,157,2.0,-999.0,90,0.00,,,-99.99,,2013-03-01 20:21:00,
2013-03-01 12:30:00,55.0,51.0,-100.00,SSE,155,1.0,-999.0,86,0.00,,,-99.99,,2013-03-01 20:30:00,
2013-03-01 12:52:00,55.0,51.0,-100.00,SSE,155,1.0,-999.0,86,0.00,,,-99.99,,2013-03-01 20:52:00,
2013-03-01 13:01:00,55.0,51.0,-100.00,SSE,155,1.0,-999.0,86,0.00,,,-99.99,,2013-03-01 21:01:00,
2013-03-01 13:11:00,55.0,51.0,-100.00,SSE,155,1.0,-999.0,86,0.00,,,-99.99,,2013-03-01 21:11:00,
2013-03-01 13:21:00,55.0,51.0,-100.00,SSE,155,1.0,-999.0,86,0.00,,,-99.99,,2013-03-01 21:21:00,
2013-03-01 13:30:00,55.0,50.0,-100.00,NNE,19,2.0,-999.0,83,0.00,,,-99.99,,2013-03-01 21:30:00,
2013-03-01 13:52:00,55.0,50.0,-100.00,NNE,19,2.0,-999.0,83,0.00,,,-99.99,,2013-03-01 21:52:00,
2013-03-01 14:01:00,55.0,50.0,-100.00,NNE,19,2.0,-999.0,83,0.00,,,-99.99,,2013-03-01 22:01:00,
2013-03-01 14:11:00,55.0,50.0,-100.00,NNE,19,2.0,-999.0,83,0.00,,,-99.99,,2013-03-01 22:11:00,
2013-03-01 14:21:00,55.0,50.0,-100.00,NNE,19,2.0,-999.0,83,0.00,,,-99.99,,2013-03-01 22:21:00,
2013-03-01 14:30:00,56.0,51.0,-100.00,NNE,30,1.0,-999.0,82,0.00,,,-99.99,,2013-03-01 22:30:00,
2013-03-01 14:52:00,56.0,51.0,-100.00,NNE,30,1.0,-999.0,82,0.00,,,-99.99,,2013-03-01 22:52:00,
2013-03-01 15:01:00,56.0,51.0,-100.00,NNE,30,1.0,-999.0,82,0.00,,,-99.99,,2013-03-01 23:01:00,
2013-03-01 15:11:00,56.0,51.0,-100.00,NNE,30,1.0,-999.0,82,0.00,,,-99.99,,2013-03-01 23:11:00,
2013-03-01 15:21:00,56.0,51.0,-100.00,NNE,30,1.0,-999.0,82,0.00,,,-99.99,,2013-03-01 23:21:00,
2013-03-01 15:30:00,55.0,50.0,-100.00,NW,312,2.0,-999.0,83,0.00,,,-99.99,,2013-03-01 23:30:00,
2013-03-01 15:52:00,55.0,50.0,-100.00,NW,312,2.0,-999.0,83,0.00,,,-99.99,,2013-03-01 23:52:00,
2013-03-01 16:01:00,55.0,50.0,-100.00,NW,312,2.0,-999.0,83,0.00,,,-99.99,,2013-03-02 00:01:00,
2013-03-01 16:11:00,55.0,50.0,-100.00,NW,312,2.0,-999.0,83,0.00,,,-99.99,,2013-03-02 00:11:00,
2013-03-01 16:21:00,55.0,50.0,-100.00,NW,312,2.0,-999.0,83,0.00,,,-99.99,,2013-03-02 00:21:00,
2013-03-01 16:30:00,52.0,49.0,-100.00,WNW,283,1.0,-999.0,88,0.00,,,-99.99,,2013-03-02 00:30:00,
2013-03-01 16:52:00,52.0,49.0,-100.00,WNW,283,1.0,-999.0,88,0.00,,,-99.99,,2013-03-02 00:52:00,
2013-03-01 17:01:00,52.0,49.0,-100.00,WNW,283,1.0,-999.0,88,0.00,,,-99.99,,2013-03-02 01:01:00,
2013-03-01 17:11:00,52.0,49.0,-100.00,WNW,283,1.0,-999.0,88,0.00,,,-99.99,,2013-03-02 01:11:00,
2013-03-01 17:21:00,52.0,49.0,-100.00,WNW,283,1.0,-999.0,88,0.00,,,-99.99,,2013-03-02 01:21:00,
2013-03-01 17:30:00,50.0,47.0,-100.00,NE,40,1.0,-999.0,91,0.00,,,-99.99,,2013-03-02 01:30:00,
2013-03-01 17:52:00,50.0,47.0,-100.00,NE,40,1.0,-999.0,91,0.00,,,-99.99,,2013-03-02 01:52:00,
2013-03-01 18:01:00,50.0,47.0,-100.00,NE,40,1.0,-999.0,91,0.00,,,-99.99,,2013-03-02 02:01:00,
2013-03-01 18:11:00,50.0,47.0,-100.00,NE,40,1.0,-999.0,91,0.00,,,-99.99,,2013-03-02 02:11:00,
2013-03-01 18:21:00,50.0,47.0,-100.00,NE,40,1.0,-999.0,91,0.00,,,-99.99,,2013-03-02 02:21:00,
2013-03-01 18:30:00,47.0,46.0,-100.00,ENE,66,1.0,-999.0,95,0.00,,,-99.99,,2013-03-02 02:30:00,
2013-03-01 18:52:00,47.0,46.0,-100.00,ENE,66,1.0,-999.0,95,0.00,,,-99.99,,2013-03-02 02:52:00,
2013-03-01 19:01:00,47.0,46.0,-100.00,ENE,66,1.0,-999.0,95,0.00,,,-99.99,,2013-03-02 03:01:00,
2013-03-01 19:11:00,47.0,46.0,-100.00,ENE,66,1.0,-999.0,95,0.00,,,-99.99,,2013-03-02 03:11:00,
2013-03-01 19:21:00,47.0,46.0,-100.00,ENE,66,1.0,-999.0,95,0.00,,,-99.99,,2013-03-02 03:21:00,
2013-03-01 19:30:00,47.0,46.0,-100.00,NNE,20,3.0,-999.0,97,0.00,,,-99.99,,2013-03-02 03:30:00,
2013-03-01 19:52:00,47.0,46.0,-100.00,NNE,20,3.0,-999.0,97,0.00,,,-99.99,,2013-03-02 03:52:00,
2013-03-01 20:01:00,47.0,46.0,-100.00,NNE,20,3.0,-999.0,97,0.00,,,-99.99,,2013-03-02 04:01:00,
2013-03-01 20:11:00,47.0,46.0,-100.00,NNE,20,3.0,-999.0,97,0.00,,,-99.99,,2013-03-02 04:11:00,
2013-03-01 20:21:00,47.0,46.0,-100.00,NNE,20,3.0,-999.0,97,0.00,,,-99.99,,2013-03-02 04:21:00,
2013-03-01 20:30:00,47.0,46.0,-100.00,NNE,24,1.0,-999.0,97,0.00,,,-99.99,,2013-03-02 04:30:00,
2013-03-01 20:52:00,47.0,46.0,-100.00,NNE,24,1.0,-999.0,97,0.00,,,-99.99,,2013-03-02 04:52:00,
2013-03-01 21:01:00,47.0,46.0,-100.00,NNE,24,1.0,-999.0,97,0.00,,,-99.99,,2013-03-02 05:01:00,
2013-03-01 21:12:00,47.0,46.0,-100.00,NNE,24,1.0,-999.0,97,0.00,,,-99.99,,2013-03-02 05:12:00,
2013-03-01 21:22:00,47.0,46.0,-100.00,NNE,24,1.0,-999.0,97,0.00,,,-99.99,,2013-03-02 05:22:00,
2013-03-01 21:30:00,47.0,46.0,-100.00,SE,137,0.0,-999.0,97,0.00,,,-99.99,,2013-03-02 05:30:00,
2013-03-01 21:52:00,47.0,46.0,-100.00,SE,137,0.0,-999.0,97,0.00,,,-99.99,,2013-03-02 05:52:00,
2013-03-01 22:01:00,47.0,46.0,-100.00,SE,137,0.0,-999.0,97,0.00,,,-99.99,,2013-03-02 06:01:00,
2013-03-01 22:11:00,47.0,46.0,-100.00,SE,137,0.0,-999.0,97,0.00,,,-99.99,,2013-03-02 06:11:00,
2013-03-01 22:21:00,47.0,46.0,-100.00,SE,137,0.0,-999.0,97,0.00,,,-99.99,,2013-03-02 06:21:00,
2013-03-01 22:30:00,47.0,46.0,-100.00,SW,216,0.0,-999.0,97,0.00,,,-99.99,,2013-03-02 06:30:00,
2013-03-01 22:52:00,47.0,46.0,-100.00,SW,216,0.0,-999.0,97,0.00,,,-99.99,,2013-03-02 06:52:00,
2013-03-01 23:01:00,47.0,46.0,-100.00,SW,216,0.0,-999.0,97,0.00,,,-99.99,,2013-03-02 07:01:00,
2013-03-01 23:11:00,47.0,46.0,-100.00,SW,216,0.0,-999.0,97,0.00,,,-99.99,,2013-03-02 07:11:00,
2013-03-01 23:21:00,47.0,46.0,-100.00,SW,216,0.0,-999.0,97,0.00,,,-99.99,,2013-03-02 07:21:00,
2013-03-01 23:30:00,47.0,46.0,-100.00,WNW,301,0.0,-999.0,97,0.00,,,-99.99,,2013-03-02 07:30:00,
2013-03-01 23:52:00,47.0,46.0,-100.00,WNW,301,0.0,-999.0,97,0.00,,,-99.99,,2013-03-02 07:52:00,